Dyersburg, TN

9:49 PM CDT on April 25, 2017 (GMT -0500)
Dyersburg Municipal

Weather History for KDYR - March, 2014

Change the Weather History Date:

Monday, March 17, 2014

  Actual Average Record
Temperature  
Mean Temperature 36 °F -  
Max Temperature 42 °F 55 °F 78 °F (2011)
Min Temperature 30 °F 39 °F 30 °F (2014)
Degree Days  
Heating Degree Days 29    
Moisture  
Dew Point 24 °F    
Average Humidity 61    
Maximum Humidity 75    
Minimum Humidity 55    
Precipitation  
Precipitation 0.00 in - - ()
Sea Level Pressure  
Sea Level Pressure 29.89 in    
Wind  
Wind Speed 11 mph (NNE)    
Max Wind Speed 17 mph    
Max Gust Speed 28 mph    
Visibility 10 miles    
Events      
Averages and records for this station are not official NWS values.
T = Trace of Precipitation, MM = Missing Value Source: NWS Daily Summary

Daily Weather History Graph

Daily Weather History Graph

Search for Another Location

Airport or City:

Trip Planner

Search our weather history database for the weather conditions in past years. The results will help you decide how hot, cold, wet, or windy it might be!

Date:

Astronomy

Mar. 17, 2014 Rise Set
Actual Time 7:05 AM CDT 7:06 PM CDT
Civil Twilight 6:40 AM CDT 7:32 PM CDT
Nautical Twilight 6:10 AM CDT 8:02 PM CDT
Astronomical Twilight 5:40 AM CDT 8:32 PM CDT
Moon 8:20 PM CDT (3/17) 7:23 AM CDT (3/17)
Length of Visible Light 12h 52m
Length of Day
12h 01m
Full, 99% of the Moon is Illuminated
Mar 17
Full
Mar 23
Last Quarter
Mar 30
New
Apr 7
First Quarter
Apr 15
Full

Hourly Weather History & Observations

Time (CDT) Temp. Windchill Dew Point Humidity Pressure Visibility Wind Dir Wind Speed Gust Speed Precip Events Conditions
12:15 AM 35.6 °F 25.5 °F 23.0 °F 60% 29.90 in 10.0 mi NNE 17.3 mph 23.0 mph N/A   Overcast
12:35 AM 35.6 °F 25.9 °F 23.0 °F 60% 29.92 in 10.0 mi NNE 16.1 mph 20.7 mph N/A   Overcast
12:55 AM 35.6 °F 27.5 °F 21.2 °F 56% 29.92 in 10.0 mi NNE 11.5 mph 25.3 mph N/A   Overcast
1:15 AM 35.6 °F 25.9 °F 21.2 °F 56% 29.91 in 10.0 mi NNE 16.1 mph 27.6 mph N/A   Overcast
1:35 AM 33.8 °F 25.3 °F 21.2 °F 60% 29.92 in 10.0 mi North 11.5 mph - N/A   Overcast
1:55 AM 33.8 °F 23.5 °F 21.2 °F 60% 29.92 in 10.0 mi NNE 16.1 mph 19.6 mph N/A   Overcast
2:15 AM 33.8 °F 23.9 °F 21.2 °F 60% 29.91 in 10.0 mi NNE 15.0 mph 23.0 mph N/A   Overcast
2:35 AM 33.8 °F 24.3 °F 21.2 °F 60% 29.91 in 10.0 mi NNE 13.8 mph - N/A   Overcast
2:55 AM 33.8 °F 24.3 °F 21.2 °F 60% 29.90 in 10.0 mi North 13.8 mph 19.6 mph N/A   Overcast
3:15 AM 33.8 °F 23.9 °F 19.4 °F 56% 29.90 in 10.0 mi NNE 15.0 mph 21.9 mph N/A   Overcast
3:35 AM 33.8 °F 24.3 °F 19.4 °F 56% 29.89 in 10.0 mi North 13.8 mph 18.4 mph N/A   Overcast
3:55 AM 33.8 °F 23.5 °F 19.4 °F 56% 29.88 in 10.0 mi North 16.1 mph 21.9 mph N/A   Overcast
4:15 AM 32.0 °F 22.5 °F 19.4 °F 60% 29.89 in 10.0 mi North 12.7 mph - N/A   Overcast
4:35 AM 32.0 °F 22.1 °F 19.4 °F 60% 29.89 in 10.0 mi North 13.8 mph - N/A   Overcast
4:55 AM 32.0 °F 21.2 °F 19.4 °F 60% 29.89 in 10.0 mi NNE 16.1 mph 20.7 mph N/A   Overcast
5:15 AM 32.0 °F 23.0 °F 17.6 °F 55% 29.89 in 10.0 mi NE 11.5 mph 18.4 mph N/A   Overcast
5:35 AM 32.0 °F 23.6 °F 17.6 °F 55% 29.90 in 10.0 mi NNE 10.4 mph - N/A   Overcast
5:55 AM 32.0 °F 23.0 °F 17.6 °F 55% 29.91 in 10.0 mi NNE 11.5 mph 17.3 mph N/A   Overcast
6:15 AM 30.2 °F 20.2 °F 17.6 °F 60% 29.92 in 10.0 mi North 12.7 mph - N/A   Overcast
6:35 AM 30.2 °F 20.2 °F 17.6 °F 60% 29.92 in 10.0 mi North 12.7 mph - N/A   Overcast
6:55 AM 30.2 °F 21.3 °F 17.6 °F 60% 29.92 in 10.0 mi North 10.4 mph - N/A   Overcast
7:15 AM 30.2 °F 20.2 °F 17.6 °F 60% 29.93 in 10.0 mi North 12.7 mph 16.1 mph N/A   Overcast
7:35 AM 30.2 °F 19.8 °F 17.6 °F 60% 29.93 in 10.0 mi North 13.8 mph 19.6 mph N/A   Overcast
7:55 AM 30.2 °F 21.9 °F 17.6 °F 60% 29.93 in 10.0 mi NNE 9.2 mph - N/A   Overcast
8:15 AM 32.0 °F 23.6 °F 17.6 °F 55% 29.93 in 10.0 mi North 10.4 mph - N/A   Overcast
8:35 AM 32.0 °F 23.0 °F 19.4 °F 60% 29.93 in 10.0 mi North 11.5 mph - N/A   Overcast
8:55 AM 32.0 °F 23.6 °F 19.4 °F 60% 29.92 in 10.0 mi NNE 10.4 mph - N/A   Overcast
9:15 AM 32.0 °F 23.0 °F 19.4 °F 60% 29.93 in 10.0 mi NNE 11.5 mph - N/A   Overcast
9:35 AM 32.0 °F 24.2 °F 19.4 °F 60% 29.93 in 10.0 mi NE 9.2 mph - N/A   Overcast
9:55 AM 33.8 °F 27.7 °F 19.4 °F 56% 29.93 in 10.0 mi NNE 6.9 mph - N/A   Overcast
10:15 AM 33.8 °F 26.4 °F 21.2 °F 60% 29.93 in 10.0 mi North 9.2 mph - N/A   Overcast
10:35 AM 33.8 °F 27.0 °F 21.2 °F 60% 29.93 in 10.0 mi North 8.1 mph - N/A   Overcast
10:55 AM 33.8 °F 24.8 °F 21.2 °F 60% 29.93 in 10.0 mi North 12.7 mph - N/A   Overcast
11:15 AM 35.6 °F 28.0 °F 23.0 °F 60% 29.93 in 10.0 mi North 10.4 mph - N/A   Overcast
11:35 AM 35.6 °F 27.1 °F 24.8 °F 65% 29.92 in 10.0 mi NNE 12.7 mph 17.3 mph N/A   Overcast
11:55 AM 37.4 °F 30.3 °F 24.8 °F 60% 29.90 in 10.0 mi NNE 10.4 mph - N/A   Overcast
12:15 PM 37.4 °F 28.5 °F 26.6 °F 65% 29.89 in 10.0 mi NNE 15.0 mph 19.6 mph N/A   Overcast
12:35 PM 39.2 °F 32.0 °F 26.6 °F 61% 29.89 in 10.0 mi NE 11.5 mph 16.1 mph N/A   Overcast
12:55 PM 39.2 °F 33.0 °F 26.6 °F 61% 29.88 in 10.0 mi NE 9.2 mph - N/A   Overcast
1:15 PM 39.2 °F 32.0 °F 26.6 °F 61% 29.87 in 10.0 mi NNE 11.5 mph - N/A   Overcast
1:35 PM 39.2 °F 32.0 °F 26.6 °F 61% 29.86 in 10.0 mi ENE 11.5 mph - N/A   Overcast
1:55 PM 39.2 °F 34.2 °F 26.6 °F 61% 29.85 in 10.0 mi ENE 6.9 mph - N/A   Overcast
2:15 PM 39.2 °F 33.0 °F 26.6 °F 61% 29.84 in 10.0 mi ENE 9.2 mph - N/A   Overcast
2:35 PM 41.0 °F 35.2 °F 28.4 °F 61% 29.84 in 10.0 mi ENE 9.2 mph - N/A   Overcast
2:55 PM 41.0 °F 35.2 °F 28.4 °F 61% 29.85 in 10.0 mi NE 9.2 mph - N/A   Overcast
3:15 PM 41.0 °F 36.4 °F 28.4 °F 61% 29.85 in 10.0 mi NNE 6.9 mph - N/A   Overcast
3:35 PM 41.0 °F 38.0 °F 28.4 °F 61% 29.86 in 10.0 mi North 4.6 mph - N/A   Overcast
3:55 PM 42.8 °F 37.5 °F 28.4 °F 57% 29.86 in 10.0 mi North 9.2 mph - N/A   Overcast
4:15 PM 41.0 °F 36.4 °F 28.4 °F 61% 29.84 in 10.0 mi NNE 6.9 mph - N/A   Overcast
4:35 PM 42.8 °F 38.6 °F 28.4 °F 57% 29.84 in 10.0 mi NNE 6.9 mph - N/A   Overcast
4:55 PM 42.8 °F 38.6 °F 28.4 °F 57% 29.85 in 10.0 mi NNE 6.9 mph - N/A   Overcast
5:15 PM 42.8 °F 38.6 °F 28.4 °F 57% 29.84 in 10.0 mi NE 6.9 mph - N/A   Overcast
5:35 PM 42.8 °F 38.6 °F 28.4 °F 57% 29.83 in 10.0 mi ENE 6.9 mph - N/A   Overcast
5:55 PM 42.8 °F 39.3 °F 28.4 °F 57% 29.83 in 10.0 mi NE 5.8 mph - N/A   Overcast
6:15 PM 42.8 °F 39.3 °F 28.4 °F 57% 29.84 in 10.0 mi ENE 5.8 mph - N/A   Overcast
6:35 PM 42.8 °F 41.1 °F 28.4 °F 57% 29.85 in 10.0 mi ENE 3.5 mph - N/A   Mostly Cloudy
6:55 PM 41.0 °F - 28.4 °F 61% 29.84 in 10.0 mi Calm Calm - N/A   Scattered Clouds
7:15 PM 41.0 °F - 28.4 °F 61% 29.85 in 10.0 mi Calm Calm - N/A   Clear
7:35 PM 39.2 °F - 26.6 °F 61% 29.86 in 10.0 mi Calm Calm - N/A   Clear
7:55 PM 37.4 °F - 26.6 °F 65% 29.87 in 10.0 mi Calm Calm - N/A   Clear
8:15 PM 37.4 °F - 26.6 °F 65% 29.86 in 10.0 mi Calm Calm - N/A   Clear
8:35 PM 35.6 °F 32.8 °F 26.6 °F 70% 29.86 in 10.0 mi East 3.5 mph - N/A   Clear
8:55 PM 35.6 °F - 26.6 °F 70% 29.86 in 10.0 mi Calm Calm - N/A   Clear
9:15 PM 35.6 °F - 26.6 °F 70% 29.87 in 9.0 mi Calm Calm - N/A   Clear
9:35 PM 35.6 °F - 26.6 °F 70% 29.87 in 10.0 mi Calm Calm - N/A   Clear
9:55 PM 35.6 °F - 26.6 °F 70% 29.88 in 6.0 mi Calm Calm - N/A   Clear
10:15 PM 35.6 °F - 26.6 °F 70% 29.88 in 7.0 mi Calm Calm - N/A   Clear
10:35 PM 33.8 °F - 26.6 °F 75% 29.88 in 7.0 mi Calm Calm - N/A   Clear
10:55 PM 33.8 °F - 26.6 °F 75% 29.87 in 7.0 mi Calm Calm - N/A   Clear
11:15 PM 33.8 °F - 26.6 °F 75% 29.87 in 10.0 mi Calm Calm - N/A   Clear
11:35 PM 33.8 °F - 24.8 °F 70% 29.87 in 9.0 mi Calm Calm - N/A   Clear
11:55 PM 33.8 °F - 24.8 °F 70% 29.87 in 7.0 mi Calm Calm - N/A   Clear